Weather History for Greenville, AL

Change the Weather History Date:

Sunday, May 4, 2014

  Actual Average Record
Temperature  
Mean Temperature 67 °F -  
Max Temperature 88 °F 79 °F 94 °F (1955)
Min Temperature 48 °F 55 °F 38 °F (1971)
Cooling Degree Days 2    
Growing Degree Days 17 (Base 50)    
Moisture  
Dew Point 50 °F    
Average Humidity 58    
Maximum Humidity 90    
Minimum Humidity 23    
Precipitation  
Precipitation 0.00 in - - ()
Sea Level Pressure  
Sea Level Pressure 30.08 in    
Wind  
Wind Speed 1 mph (WNW)    
Max Wind Speed 7 mph    
Max Gust Speed -    
Visibility 10 miles    
Events      
Averages and records for this station are not official NWS values.
T = Trace of Precipitation, MM = Missing Value Source: NWS Daily Summary

Daily Weather History Graph

Daily Weather History Graph

Search for Another Location

Airport:

Trip Planner

Search our weather history database for the weather conditions in past years. The results will help you decide how hot, cold, wet, or windy it might be!

Date:

Astronomy

May. 04, 2014 Rise Set
Actual Time 5:58 AM CDT 7:28 PM CDT
Civil Twilight 5:31 AM CDT 7:55 PM CDT
Nautical Twilight 5:00 AM CDT 8:26 PM CDT
Astronomical Twilight 4:27 AM CDT 8:59 PM CDT
Moon 10:22 AM CDT (5/4) No Moon Set
Length of Visible Light 14h 23m
Length of Day
13h 30m
Waxing Crescent, 28% of the Moon is Illuminated
May 4
Waxing Crescent
May 6
First Quarter
May 14
Full
May 21
Last Quarter
May 28
New

Hourly Weather History & Observations

Time (CDT) Temp. Dew Point Humidity Pressure Visibility Wind Dir Wind Speed Gust Speed Precip Events Conditions
12:56 AM 54.0 °F 50.0 °F 86% 30.08 in 10.0 mi Calm Calm - N/A   Clear
1:56 AM 53.1 °F 48.9 °F 86% 30.07 in 10.0 mi Calm Calm - N/A   Clear
2:56 AM 53.1 °F 48.9 °F 86% 30.08 in 10.0 mi Calm Calm - N/A   Clear
3:56 AM 51.1 °F 48.0 °F 89% 30.08 in 10.0 mi Calm Calm - N/A   Clear
4:56 AM 51.1 °F 46.9 °F 86% 30.08 in 10.0 mi Calm Calm - N/A   Clear
5:56 AM 48.9 °F 46.0 °F 90% 30.10 in 10.0 mi Calm Calm - N/A   Clear
6:56 AM 53.1 °F 48.9 °F 86% 30.12 in 10.0 mi Calm Calm - N/A   Clear
7:56 AM 63.0 °F 55.0 °F 75% 30.12 in 10.0 mi Calm Calm - N/A   Clear
8:56 AM 73.0 °F 52.0 °F 48% 30.13 in 10.0 mi Calm Calm - N/A   Clear
9:56 AM 79.0 °F 48.9 °F 35% 30.13 in 10.0 mi WNW 3.5 mph - N/A   Clear
10:56 AM 81.0 °F 46.9 °F 30% 30.13 in 10.0 mi Variable 3.5 mph - N/A   Clear
11:56 AM 82.0 °F 46.9 °F 29% 30.12 in 10.0 mi NW 5.8 mph - N/A   Clear
12:56 PM 84.0 °F 46.0 °F 26% 30.09 in 10.0 mi Calm Calm - N/A   Clear
1:56 PM 86.0 °F 45.0 °F 24% 30.07 in 10.0 mi NNE 3.5 mph - N/A   Clear
2:56 PM 86.0 °F 46.9 °F 26% 30.05 in 10.0 mi West 6.9 mph - N/A   Clear
3:56 PM 86.0 °F 45.0 °F 24% 30.03 in 10.0 mi Variable 3.5 mph - N/A   Clear
4:56 PM 86.0 °F 44.1 °F 23% 30.03 in 10.0 mi West 6.9 mph - N/A   Clear
5:56 PM 84.9 °F 48.0 °F 28% 30.02 in 10.0 mi West 6.9 mph - N/A   Clear
6:56 PM 82.0 °F 48.9 °F 31% 30.02 in 10.0 mi Calm Calm - N/A   Clear
7:56 PM 72.0 °F 59.0 °F 64% 30.04 in 10.0 mi Calm Calm - N/A   Clear
8:56 PM 66.9 °F 57.9 °F 73% 30.05 in 10.0 mi Calm Calm - N/A   Clear
9:56 PM 64.0 °F 57.0 °F 78% 30.06 in 10.0 mi Calm Calm - N/A   Clear
10:56 PM 62.1 °F 57.0 °F 84% 30.06 in 10.0 mi Calm Calm - N/A   Clear
11:56 PM 62.1 °F 55.9 °F 80% 30.07 in 10.0 mi Calm Calm - N/A   Clear